Location: Caltech
(34.1382°N, 118.1253°W)
Time: 12:58:01
(UTC-07:00)

FENGYUN 3A - Visible Passes

Search period start: 25 July 2014 00:00
Search period end: 04 August 2014 00:00
Orbit: 819 x 834 km, 98.6° (Epoch: 25 July)

Date Brightness Start Highest point End Pass type
(mag) Time Alt. Az. Time Alt. Az. Time Alt. Az.
25 Jul 3.9 21:25:11 25° SE 21:28:06 52° ENE 21:33:17 10° N visible
25 Jul 5.8 23:06:41 14° WSW 23:08:34 16° W 23:11:48 10° NW visible
26 Jul 4.4 21:06:18 18° ESE 21:09:30 34° ENE 21:14:17 10° N visible
26 Jul 5.4 22:47:48 20° SW 22:49:43 25° W 22:54:03 10° NW visible
27 Jul 5.0 20:47:25 12° ESE 20:50:57 23° ENE 20:55:05 10° NNE visible
27 Jul 4.7 22:28:55 28° SW 22:30:55 38° W 22:35:52 10° NNW visible
28 Jul 5.4 20:29:25 10° E 20:32:28 16° ENE 20:35:30 10° NNE visible
28 Jul 4.0 22:10:02 35° SSW 22:12:10 58° W 22:17:26 10° NNW visible
29 Jul 3.6 21:51:10 36° SSE 21:53:27 88° WSW 21:58:50 10° NNW visible
30 Jul 3.7 21:32:17 31° SE 21:34:47 61° ENE 21:40:04 10° N visible
30 Jul 6.0 23:13:48 12° WSW 23:15:21 13° W 23:17:54 10° WNW visible
31 Jul 4.2 21:13:25 23° SE 21:16:10 40° ENE 21:21:08 10° N visible
31 Jul 5.5 22:54:55 19° WSW 22:56:29 21° W 23:00:28 10° NW visible
01 Aug 4.8 20:54:32 16° ESE 20:57:36 27° ENE 21:02:01 10° NNE visible
01 Aug 5.0 22:36:03 27° SW 22:37:40 32° W 22:42:25 10° NW visible
02 Aug 5.2 20:35:40 10° ESE 20:39:06 18° ENE 20:42:37 10° NNE visible
02 Aug 4.3 22:17:10 36° SSW 22:18:54 49° W 22:24:04 10° NNW visible
03 Aug 5.6 20:18:46 10° E 20:20:38 12° ENE 20:22:30 10° NE visible
03 Aug 3.7 21:58:18 42° S 22:00:10 76° WSW 22:05:32 10° NNW visible
